| time (UTC) | temp C | wind direction | speed KPH | gust KPH | rain 1hr cm | rain 24hr cm | rain mn cm | humidity % | barometer mb |
| 20260505035131 | 16 | 347 | 0.0 | 1.6 | 0.00 | 0.00 | 0.00 | 53 | 1011.8 |
| 20260505034131 | 17 | 347 | 0.0 | 0.0 | 0.00 | 0.00 | 0.00 | 52 | 1011.9 |
| 20260505033131 | 17 | 347 | 0.0 | 0.0 | 0.00 | 0.00 | 0.00 | 51 | 1011.9 |
| 20260505032130 | 17 | 347 | 0.0 | 1.6 | 0.00 | 0.00 | 0.00 | 50 | 1011.9 |
| 20260505031130 | 17 | 347 | 0.0 | 1.6 | 0.00 | 0.00 | 0.00 | 50 | 1011.9 |
| 20260505030200 | 17 | 252 | 0.0 | 3.2 | 0.00 | 0.00 | 0.00 | 50 | 1011.8 |
| 20260505025200 | 17 | 42 | 0.0 | 4.8 | 0.00 | 0.00 | 0.00 | 50 | 1011.9 |
| 20260505024130 | 17 | 253 | 0.0 | 0.0 | 0.00 | 0.00 | 0.00 | 52 | 1011.9 |
| 20260505022200 | 17 | 250 | 0.0 | 1.6 | 0.00 | 0.00 | 0.00 | 53 | 1011.8 |
| 20260505021200 | 17 | 250 | 0.0 | 1.6 | 0.00 | 0.00 | 0.00 | 53 | 1012.0 |
| 20260505020200 | 17 | 250 | 0.0 | 0.0 | 0.00 | 0.00 | 0.00 | 52 | 1012.0 |
| 20260505015200 | 17 | 250 | 0.0 | 1.6 | 0.00 | 0.00 | 0.00 | 52 | 1011.8 |
| 20260505013159 | 17 | 244 | 0.0 | 0.0 | 0.00 | 0.00 | 0.00 | 51 | 1011.6 |
| 20260505012159 | 18 | 244 | 0.0 | 0.0 | 0.00 | 0.00 | 0.00 | 50 | 1011.6 |
| 20260505011159 | 18 | 244 | 0.0 | 0.0 | 0.00 | 0.00 | 0.00 | 49 | 1011.5 |
| 20260505010159 | 18 | 244 | 0.0 | 0.0 | 0.00 | 0.00 | 0.00 | 47 | 1011.4 |
| 20260505005159 | 18 | 244 | 0.0 | 0.0 | 0.00 | 0.00 | 0.00 | 45 | 1011.4 |
| 20260505002159 | 20 | 64 | 0.0 | 4.8 | 0.00 | 0.00 | 0.00 | 42 | 1011.3 |
| 20260505001159 | 20 | 296 | 0.0 | 0.0 | 0.00 | 0.00 | 0.00 | 41 | 1011.3 |
| 20260505000159 | 20 | 296 | 0.0 | 1.6 | 0.00 | 0.00 | 0.00 | 40 | 1011.2 |
| 20260504235158 | 20 | 261 | 0.0 | 4.8 | 0.00 | 0.00 | 0.00 | 38 | 1011.1 |
| 20260504234128 | 21 | 246 | 0.0 | 4.8 | 0.00 | 0.00 | 0.00 | 37 | 1011.2 |
| 20260504233158 | 21 | 306 | 0.0 | 6.4 | 0.00 | 0.00 | 0.00 | 36 | 1011.3 |
| 20260504232128 | 21 | 240 | 0.0 | 4.8 | 0.00 | 0.00 | 0.00 | 36 | 1011.4 |
| 20260504231128 | 21 | 299 | 1.6 | 3.2 | 0.00 | 0.00 | 0.00 | 35 | 1011.2 |
| 20260504225158 | 22 | 203 | 0.0 | 6.4 | 0.00 | 0.00 | 0.00 | 33 | 1011.0 |
| 20260504224128 | 22 | 13 | 0.0 | 4.8 | 0.00 | 0.00 | 0.00 | 33 | 1011.0 |
| 20260504223157 | 22 | 311 | 1.6 | 6.4 | 0.00 | 0.00 | 0.00 | 31 | 1010.9 |
| 20260504220157 | 25 | 309 | 3.2 | 11.3 | 0.00 | 0.00 | 0.00 | 27 | 1011.0 |
| 20260504215157 | 25 | 196 | 1.6 | 4.8 | 0.00 | 0.00 | 0.00 | 25 | 1010.9 |
| 20260504214157 | 25 | 240 | 1.6 | 8.0 | 0.00 | 0.00 | 0.00 | 25 | 1010.9 |
| 20260504213157 | 25 | 243 | 1.6 | 11.3 | 0.00 | 0.00 | 0.00 | 25 | 1010.9 |
| 20260504212127 | 25 | 304 | 0.0 | 12.9 | 0.00 | 0.00 | 0.00 | 24 | 1010.9 |
| 20260504210156 | 25 | 232 | 3.2 | 9.7 | 0.00 | 0.00 | 0.00 | 24 | 1010.9 |
| 20260504205157 | 25 | 250 | 3.2 | 11.3 | 0.00 | 0.00 | 0.00 | 25 | 1011.1 |
| 20260504204126 | 25 | 276 | 4.8 | 12.9 | 0.00 | 0.00 | 0.00 | 25 | 1011.2 |
| 20260504203156 | 25 | 265 | 1.6 | 12.9 | 0.00 | 0.00 | 0.00 | 25 | 1011.3 |
| 20260504202156 | 25 | 280 | 4.8 | 14.5 | 0.00 | 0.00 | 0.00 | 24 | 1011.4 |
| 20260504201156 | 25 | 243 | 3.2 | 11.3 | 0.00 | 0.00 | 0.00 | 24 | 1011.4 |
| 20260504200156 | 25 | 270 | 9.7 | 9.7 | 0.00 | 0.00 | 0.00 | 24 | 1011.5 |
| 20260504195156 | 25 | 268 | 0.0 | 11.3 | 0.00 | 0.00 | 0.00 | 25 | 1011.9 |
| 20260504194156 | 25 | 257 | 8.0 | 12.9 | 0.00 | 0.00 | 0.00 | 24 | 1011.9 |
| 20260504193156 | 25 | 205 | 4.8 | 11.3 | 0.00 | 0.00 | 0.00 | 24 | 1012.1 |
| 20260504192126 | 25 | 288 | 1.6 | 11.3 | 0.00 | 0.00 | 0.00 | 25 | 1012.2 |
| 20260504191156 | 24 | 256 | 1.6 | 8.0 | 0.00 | 0.00 | 0.00 | 24 | 1012.3 |
| 20260504190156 | 24 | 355 | 1.6 | 12.9 | 0.00 | 0.00 | 0.00 | 24 | 1012.5 |
| 20260504184155 | 24 | 282 | 1.6 | 11.3 | 0.00 | 0.00 | 0.00 | 25 | 1012.7 |
| 20260504183155 | 24 | 251 | 4.8 | 12.9 | 0.00 | 0.00 | 0.00 | 25 | 1012.7 |
| 20260504182155 | 23 | 298 | 1.6 | 11.3 | 0.00 | 0.00 | 0.00 | 24 | 1012.8 |
| 20260504181125 | 23 | 226 | 1.6 | 9.7 | 0.00 | 0.00 | 0.00 | 24 | 1012.9 |
| 20260504175154 | 23 | 261 | 6.4 | 14.5 | 0.00 | 0.00 | 0.00 | 24 | 1013.1 |
| 20260504173154 | 23 | 82 | 0.0 | 12.9 | 0.00 | 0.00 | 0.00 | 25 | 1013.5 |
| 20260504172155 | 22 | 266 | 1.6 | 6.4 | 0.00 | 0.00 | 0.00 | 28 | 1013.5 |
| 20260504171154 | 22 | 197 | 4.8 | 9.7 | 0.00 | 0.00 | 0.00 | 26 | 1013.6 |
| 20260504170154 | 22 | 265 | 3.2 | 12.9 | 0.00 | 0.00 | 0.00 | 27 | 1013.7 |
| 20260504160153 | 21 | 269 | 0.0 | 11.3 | 0.00 | 0.00 | 0.00 | 31 | 1014.5 |
| 20260504150153 | 19 | 274 | 4.8 | 6.4 | 0.00 | 0.00 | 0.00 | 32 | 1015.0 |
| 20260504141152 | 17 | 264 | 0.0 | 6.4 | 0.00 | 0.00 | 0.00 | 39 | 1015.4 |
| 20260504140152 | 17 | 212 | 1.6 | 6.4 | 0.00 | 0.00 | 0.00 | 39 | 1015.4 |
| 20260504130152 | 14 | 254 | 0.0 | 6.4 | 0.00 | 0.00 | 0.00 | 47 | 1015.6 |
| 20260504120151 | 11 | 241 | 1.6 | 12.9 | 0.00 | 0.00 | 0.00 | 58 | 1016.0 |
| 20260504110150 | 8 | 150 | 0.0 | 0.0 | 0.00 | 0.00 | 0.00 | 70 | 1016.0 |
| 20260504100150 | 7 | 150 | 0.0 | 0.0 | 0.00 | 0.00 | 0.00 | 71 | 1016.1 |
| 20260504081148 | 7 | 168 | 0.0 | 0.0 | 0.00 | 0.00 | 0.00 | 69 | 1016.4 |
| 20260504080148 | 7 | 168 | 0.0 | 0.0 | 0.00 | 0.00 | 0.00 | 69 | 1016.5 |
| 20260504060147 | 6 | 168 | 0.0 | 0.0 | 0.00 | 0.00 | 0.00 | 70 | 1016.7 |
| 20260504050146 | 7 | 168 | 0.0 | 0.0 | 0.00 | 0.00 | 0.00 | 69 | 1016.7 |
| 20260504045146 | 7 | 168 | 0.0 | 0.0 | 0.00 | 0.00 | 0.00 | 68 | 1016.6 |
| 20260504044146 | 7 | 168 | 0.0 | 0.0 | 0.00 | 0.00 | 0.00 | 67 | 1016.6 |
| 20260504043146 | 7 | 168 | 0.0 | 0.0 | 0.00 | 0.00 | 0.00 | 66 | 1016.6 |
| 20260504042146 | 7 | 168 | 0.0 | 0.0 | 0.00 | 0.00 | 0.00 | 64 | 1016.6 |
| 20260504041146 | 7 | 168 | 0.0 | 0.0 | 0.00 | 0.00 | 0.00 | 65 | 1016.5 |
| 20260504040146 | 7 | 168 | 0.0 | 0.0 | 0.00 | 0.00 | 0.00 | 65 | 1016.1 |